Weather History for Danville, VA

Change the Weather History Date:

Monday, July 22, 2013

  Actual Average Record
Temperature  
Mean Temperature 79 °F 78 °F  
Max Temperature 87 °F 88 °F 104 °F (1952)
Min Temperature 71 °F 69 °F 50 °F (1974)
Degree Days  
Heating Degree Days 0 0  
Month to date heating degree days 0 0  
Since 1 June heating degree days 0 3  
Since 1 July heating degree days 0 0  
Cooling Degree Days 14 13  
Month to date cooling degree days 321 286  
Year to date cooling degree days 794 727  
Since 1 June cooling degree days 632 583  
Growing Degree Days 28 (Base 50)    
Moisture  
Dew Point 71 °F    
Average Humidity 81    
Maximum Humidity 100    
Minimum Humidity 61    
Precipitation  
Precipitation 0.00 in 0.14 in 0.94 in (2006)
Month to date precipitation 9.00 3.33  
Year to date precipitation 35.15 25.06  
Snow  
Snow 0.00 in - - ()
Month to date snowfall 0.0  
Since 1 June snowfall 0.0  
Since 1 July snowfall 0.0  
Snow Depth 0.00 in    
Sea Level Pressure  
Sea Level Pressure 29.92 in    
Wind  
Wind Speed 3 mph (SW)    
Max Wind Speed 12 mph    
Max Gust Speed -    
Visibility 5 miles    
Events Fog    
T = Trace of Precipitation, MM = Missing Value Source: NWS Daily Summary

Daily Weather History Graph

Daily Weather History Graph

Search for Another Location

Airport:

Trip Planner

Search our weather history database for the weather conditions in past years. The results will help you decide how hot, cold, wet, or windy it might be!

Date:

Astronomy

Jul. 22, 2013 Rise Set
Actual Time 6:15 AM EDT 8:31 PM EDT
Civil Twilight 5:46 AM EDT 9:00 PM EDT
Nautical Twilight 5:10 AM EDT 9:36 PM EDT
Astronomical Twilight 4:31 AM EDT 10:15 PM EDT
Moon 8:18 PM EDT (7/22) 6:08 AM EDT (7/22)
Length of Visible Light 15h 13m
Length of Day
14h 15m
Full, 100% of the Moon is Illuminated
Jul 22
Full
Jul 22
Full
Jul 29
Last Quarter
Aug 6
New
Aug 14
First Quarter

Hourly Weather History & Observations

Time (EDT) Temp. Heat Index Dew Point Humidity Pressure Visibility Wind Dir Wind Speed Gust Speed Precip Events Conditions
12:09 AM 73.4 °F - 71.6 °F 94% 29.97 in 1.2 mi Calm Calm - N/A   Overcast
12:21 AM 73.4 °F - 71.6 °F 94% 29.98 in 3.0 mi Calm Calm - N/A   Overcast
12:42 AM 73.4 °F - 71.6 °F 94% 29.98 in 8.0 mi Calm Calm - N/A   Scattered Clouds
12:53 AM 72.0 °F - 71.1 °F 97% 29.94 in 8.0 mi Calm Calm - N/A   Clear
1:53 AM 72.0 °F - 70.0 °F 93% 29.94 in 7.0 mi Calm Calm - N/A   Clear
2:39 AM 71.6 °F - 69.8 °F 94% 29.95 in 2.5 mi Calm Calm - N/A   Mostly Cloudy
2:45 AM 71.6 °F - 69.8 °F 94% 29.95 in 0.8 mi Calm Calm - N/A   Mostly Cloudy
2:53 AM 72.0 °F - 70.0 °F 93% 29.91 in 0.8 mi Calm Calm - N/A   Overcast
3:00 AM 71.6 °F - 69.8 °F 94% 29.94 in 2.0 mi Calm Calm - N/A   Overcast
3:09 AM 71.6 °F - 69.8 °F 94% 29.94 in 3.0 mi Calm Calm - N/A   Mostly Cloudy
3:12 AM 71.6 °F - 69.8 °F 94% 29.94 in 2.5 mi Calm Calm - N/A   Mostly Cloudy
3:18 AM 71.6 °F - 69.8 °F 94% 29.93 in 3.0 mi Calm Calm - N/A   Mostly Cloudy
3:27 AM 71.6 °F - 69.8 °F 94% 29.93 in 2.5 mi Calm Calm - N/A   Scattered Clouds
3:36 AM 71.6 °F - 69.8 °F 94% 29.93 in 6.0 mi Calm Calm - N/A   Scattered Clouds
3:53 AM 72.0 °F - 70.0 °F 93% 29.89 in 5.0 mi Calm Calm - N/A   Scattered Clouds
4:04 AM 71.6 °F - 69.8 °F 94% 29.92 in 4.0 mi East 3.5 mph - N/A   Mostly Cloudy
4:11 AM 71.6 °F - 69.8 °F 94% 29.92 in 1.8 mi East 3.5 mph - N/A   Mostly Cloudy
4:23 AM 71.6 °F - 69.8 °F 94% 29.92 in 0.8 mi Calm Calm - N/A   Mist
4:30 AM 71.6 °F - 69.8 °F 94% 29.92 in 0.8 mi Calm Calm - N/A   Mist
4:53 AM 71.1 °F - 70.0 °F 96% 29.89 in 0.2 mi Calm Calm - N/A Fog Fog
5:04 AM 71.6 °F - 69.8 °F 94% 29.92 in 0.5 mi Calm Calm - N/A Fog Fog
5:53 AM 71.1 °F - 70.0 °F 96% 29.90 in 0.5 mi Calm Calm - N/A Fog Fog
6:04 AM 71.6 °F - 69.8 °F 94% 29.94 in 0.2 mi Calm Calm - N/A Fog Fog
6:10 AM 71.6 °F - 69.8 °F 94% 29.94 in 0.5 mi Calm Calm - N/A Fog Fog
6:21 AM 71.6 °F - 69.8 °F 94% 29.94 in 0.2 mi Calm Calm - N/A Fog Fog
6:53 AM 71.1 °F - 69.1 °F 93% 29.92 in 0.2 mi Calm Calm - N/A Fog Fog
7:53 AM 72.0 °F - 71.1 °F 97% 29.93 in 0.5 mi Calm Calm - N/A Fog Fog
8:01 AM 73.4 °F - 71.6 °F 94% 29.96 in 0.2 mi Calm Calm - N/A Fog Fog
8:29 AM 73.4 °F - 71.6 °F 94% 29.97 in 0.5 mi Calm Calm - N/A Fog Fog
8:40 AM 73.4 °F - 71.6 °F 94% 29.97 in 0.2 mi Calm Calm - N/A Fog Fog
8:49 AM 73.4 °F - 71.6 °F 94% 29.97 in 0.8 mi Calm Calm - N/A   Mist
8:53 AM 73.0 °F - 72.0 °F 96% 29.94 in 0.8 mi WSW 3.5 mph - N/A   Mist
9:01 AM 73.4 °F - 71.6 °F 94% 29.97 in 1.2 mi Calm Calm - N/A   Overcast
9:13 AM 73.4 °F - 71.6 °F 94% 29.97 in 3.0 mi SSW 3.5 mph - N/A   Overcast
9:53 AM 73.9 °F - 72.0 °F 93% 29.94 in 7.0 mi Variable 3.5 mph - N/A   Overcast
10:53 AM 73.9 °F - 72.0 °F 93% 29.93 in 9.0 mi SW 3.5 mph - N/A   Overcast
11:13 AM 75.2 °F - 71.6 °F 89% 29.96 in 10.0 mi SW 4.6 mph - N/A   Overcast
11:40 AM 77.0 °F - 71.6 °F 83% 29.96 in 10.0 mi SW 4.6 mph - N/A   Overcast
11:53 AM 77.0 °F - 73.0 °F 88% 29.93 in 10.0 mi WSW 3.5 mph - N/A   Overcast
12:30 PM 80.6 °F 85.4 °F 73.4 °F 79% 29.96 in 10.0 mi WSW 4.6 mph - N/A   Overcast
12:53 PM 81.0 °F 86.2 °F 73.9 °F 79% 29.92 in 10.0 mi Calm Calm - N/A   Mostly Cloudy
1:17 PM 82.4 °F 88.2 °F 73.4 °F 74% 29.94 in 10.0 mi SW 5.8 mph - N/A   Mostly Cloudy
1:53 PM 84.0 °F 91.2 °F 73.9 °F 72% 29.89 in 10.0 mi WSW 6.9 mph - N/A   Partly Cloudy
2:53 PM 84.0 °F 90.2 °F 73.0 °F 69% 29.86 in 10.0 mi Variable 5.8 mph - N/A   Scattered Clouds
3:53 PM 86.0 °F 93.0 °F 73.0 °F 65% 29.85 in 10.0 mi SSW 8.1 mph - N/A   Scattered Clouds
4:53 PM 86.0 °F 91.5 °F 71.1 °F 61% 29.82 in 10.0 mi SSW 8.1 mph - N/A   Clear
5:53 PM 84.9 °F 92.1 °F 73.9 °F 69% 29.81 in 10.0 mi SSW 5.8 mph - N/A   Clear
6:53 PM 82.9 °F 88.0 °F 72.0 °F 69% 29.80 in 10.0 mi SSW 5.8 mph - N/A   Clear
7:53 PM 81.0 °F 85.8 °F 73.0 °F 77% 29.80 in 10.0 mi SSW 3.5 mph - N/A   Clear
8:53 PM 78.1 °F - 72.0 °F 81% 29.81 in 10.0 mi SSW 4.6 mph - N/A   Clear
9:53 PM 77.0 °F - 72.0 °F 84% 29.82 in 10.0 mi SSW 3.5 mph - N/A   Clear
10:53 PM 75.9 °F - 71.1 °F 85% 29.83 in 10.0 mi Calm Calm - N/A   Partly Cloudy
11:53 PM 73.9 °F - 71.1 °F 91% 29.81 in 10.0 mi Calm Calm - N/A   Partly Cloudy